Iowa Falls, IA

6:01 PM CST on December 14, 2019 (GMT -0600)
Iowa Falls Municipal

Weather History for KIFA - October, 2019

Change the Weather History Date:

Thursday, October 3, 2019

  Actual Average Record
Temperature  
Mean Temperature 49 °F -  
Max Temperature 54 °F 68 °F 87 °F (1953)
Min Temperature 43 °F 43 °F 27 °F (1987)
Degree Days  
Heating Degree Days 16    
Moisture  
Dew Point 42 °F    
Average Humidity 73    
Maximum Humidity 87    
Minimum Humidity 55    
Precipitation  
Precipitation 0.00 in - - ()
Sea Level Pressure  
Sea Level Pressure 30.21 in    
Wind  
Wind Speed 12 mph ()    
Max Wind Speed 22 mph    
Max Gust Speed 26 mph    
Visibility 10.0 miles    
Events      
Averages and records for this station are not official NWS values.
T = Trace of Precipitation, MM = Missing Value Source: Averaged Metar Reports

Daily Weather History Graph

Daily Weather History Graph

Search for Another Location

Airport or City:

Astronomy

Oct. 03, 2019 Rise Set
Actual Time 7:12 AM CDT 6:51 PM CDT
Civil Twilight 6:44 AM CDT 7:19 PM CDT
Nautical Twilight 6:11 AM CDT 7:51 PM CDT
Astronomical Twilight 5:38 AM CDT 8:24 PM CDT
Moon 12:50 PM CDT (10/3) 10:24 PM CDT (10/3)
Length of Visible Light 12h 35m
Length of Day
11h 39m
Waxing Crescent, 30% of the Moon is Illuminated
Oct 3
Waxing Crescent
Oct 5
First Quarter
Oct 13
Full
Oct 21
Last Quarter
Oct 27
New

Hourly Weather History & Observations

Time (CDT) Temp. Windchill Dew Point Humidity Pressure Visibility Wind Dir Wind Speed Gust Speed Precip Events Conditions
12:15 AM 55.9 °F - 52.2 °F 87% 29.97 in 10.0 mi West 15.0 mph 18.4 mph N/A   Overcast
12:35 AM 55.4 °F - 51.4 °F 87% 29.97 in 10.0 mi West 13.8 mph - N/A   Overcast
12:55 AM 55.0 °F - 51.1 °F 86% 29.98 in 10.0 mi West 13.8 mph - N/A   Overcast
1:15 AM 54.7 °F - 50.9 °F 87% 29.99 in 10.0 mi West 13.8 mph - N/A   Overcast
1:35 AM 54.0 °F - 50.0 °F 86% 30.00 in 10.0 mi West 12.7 mph 20.7 mph N/A   Overcast
1:55 AM 54.0 °F - 50.0 °F 86% 30.01 in 10.0 mi West 12.7 mph 18.4 mph N/A   Overcast
2:15 AM 53.6 °F - 49.6 °F 86% 30.03 in 10.0 mi West 13.8 mph - N/A   Overcast
2:35 AM 53.4 °F - 49.3 °F 86% 30.04 in 10.0 mi WNW 13.8 mph 18.4 mph N/A   Overcast
2:55 AM 52.5 °F - 48.2 °F 85% 30.05 in 10.0 mi WNW 17.3 mph 25.3 mph N/A   Overcast
3:15 AM 52.0 °F - 47.5 °F 85% 30.05 in 10.0 mi West 17.3 mph 23.0 mph N/A   Overcast
3:35 AM 51.4 °F - 46.8 °F 84% 30.05 in 10.0 mi WNW 12.7 mph 18.4 mph N/A   Overcast
3:55 AM 51.6 °F - 46.8 °F 83% 30.06 in 10.0 mi WNW 12.7 mph 18.4 mph N/A   Overcast
4:15 AM 50.5 °F - 45.7 °F 83% 30.07 in 10.0 mi WNW 18.4 mph 25.3 mph N/A   Overcast
4:35 AM 50.2 °F - 45.3 °F 83% 30.07 in 10.0 mi WNW 17.3 mph 23.0 mph N/A   Overcast
4:55 AM 50.5 °F - 44.8 °F 81% 30.08 in 10.0 mi WNW 21.9 mph 26.5 mph N/A   Overcast
5:35 AM 50.2 °F - 44.6 °F 81% 30.11 in 10.0 mi West 9.2 mph - N/A   Mostly Cloudy
5:55 AM 49.1 °F - 43.9 °F 82% 30.12 in 10.0 mi WNW 11.5 mph - N/A   Scattered Clouds
6:15 AM 48.9 °F - 43.7 °F 82% 30.13 in 10.0 mi WNW 13.8 mph - N/A   Mostly Cloudy
6:35 AM 48.4 °F - 43.3 °F 83% 30.15 in 10.0 mi WNW 11.5 mph 18.4 mph N/A   Mostly Cloudy
6:55 AM 48.4 °F - 43.7 °F 84% 30.15 in 10.0 mi WNW 15.0 mph 21.9 mph N/A   Overcast
7:15 AM 48.6 °F - 43.7 °F 83% 30.16 in 10.0 mi WNW 15.0 mph 19.6 mph N/A   Overcast
7:35 AM 48.9 °F - 43.2 °F 80% 30.17 in 10.0 mi WNW 12.7 mph 25.3 mph N/A   Overcast
7:55 AM 49.1 °F - 42.8 °F 79% 30.18 in 10.0 mi NW 12.7 mph - N/A   Overcast
8:15 AM 49.3 °F - 42.8 °F 78% 30.18 in 10.0 mi WNW 11.5 mph 17.3 mph N/A   Overcast
8:35 AM 49.3 °F - 43.0 °F 79% 30.18 in 10.0 mi WNW 12.7 mph 19.6 mph N/A   Overcast
8:55 AM 49.3 °F - 42.6 °F 78% 30.19 in 10.0 mi WNW 15.0 mph 20.7 mph N/A   Overcast
9:15 AM 49.1 °F - 41.9 °F 76% 30.20 in 10.0 mi WNW 17.3 mph 26.5 mph N/A   Overcast
9:35 AM 49.1 °F - 41.0 °F 74% 30.20 in 10.0 mi NW 13.8 mph 19.6 mph N/A   Overcast
9:55 AM 49.6 °F - 40.5 °F 71% 30.21 in 10.0 mi NW 13.8 mph 18.4 mph N/A   Overcast
10:15 AM 49.3 °F - 40.8 °F 73% 30.22 in 10.0 mi WNW 13.8 mph - N/A   Overcast
10:35 AM 49.1 °F - 41.4 °F 75% 30.23 in 10.0 mi NW 11.5 mph 19.6 mph N/A   Overcast
10:55 AM 49.5 °F - 40.5 °F 71% 30.24 in 10.0 mi WNW 13.8 mph 18.4 mph N/A   Overcast
11:15 AM 50.9 °F - 40.6 °F 68% 30.24 in 10.0 mi NW 12.7 mph 17.3 mph N/A   Overcast
11:35 AM 50.0 °F - 41.0 °F 71% 30.25 in 10.0 mi WNW 10.4 mph 16.1 mph N/A   Overcast
11:55 AM 50.7 °F - 41.5 °F 71% 30.25 in 10.0 mi WNW 12.7 mph - N/A   Overcast
12:15 PM 51.3 °F - 40.6 °F 67% 30.26 in 10.0 mi WNW 13.8 mph - N/A   Overcast
12:35 PM 51.3 °F - 40.3 °F 66% 30.26 in 10.0 mi WNW 13.8 mph 20.7 mph N/A   Overcast
12:55 PM 52.3 °F - 39.6 °F 62% 30.26 in 10.0 mi NW 13.8 mph 20.7 mph N/A   Overcast
1:15 PM 52.5 °F - 40.5 °F 64% 30.26 in 10.0 mi WNW 15.0 mph - N/A   Overcast
1:35 PM 52.3 °F - 41.4 °F 66% 30.26 in 10.0 mi WNW 10.4 mph - N/A   Overcast
1:55 PM 53.2 °F - 40.6 °F 62% 30.27 in 10.0 mi WNW 12.7 mph 19.6 mph N/A   Overcast
2:15 PM 52.7 °F - 40.3 °F 63% 30.26 in 10.0 mi WNW 15.0 mph 19.6 mph N/A   Overcast
2:35 PM 52.5 °F - 40.3 °F 63% 30.27 in 10.0 mi WNW 17.3 mph 20.7 mph N/A   Overcast
2:55 PM 52.9 °F - 39.7 °F 61% 30.28 in 10.0 mi WNW 16.1 mph 19.6 mph N/A   Overcast
3:15 PM 52.7 °F - 39.0 °F 60% 30.28 in 10.0 mi NW 16.1 mph 20.7 mph N/A   Overcast
3:35 PM 53.1 °F - 39.0 °F 59% 30.28 in 10.0 mi WNW 15.0 mph 19.6 mph N/A   Mostly Cloudy
3:55 PM 53.1 °F - 38.7 °F 58% 30.28 in 10.0 mi WNW 15.0 mph - N/A   Mostly Cloudy
4:15 PM 53.1 °F - 38.3 °F 57% 30.28 in 10.0 mi WNW 15.0 mph - N/A   Mostly Cloudy
4:35 PM 54.0 °F - 38.8 °F 57% 30.29 in 10.0 mi WNW 15.0 mph 21.9 mph N/A   Overcast
4:55 PM 52.9 °F - 38.5 °F 58% 30.30 in 10.0 mi NW 12.7 mph - N/A   Mostly Cloudy
5:15 PM 53.2 °F - 38.5 °F 57% 30.31 in 10.0 mi NW 11.5 mph 17.3 mph N/A   Mostly Cloudy
5:35 PM 54.5 °F - 38.5 °F 55% 30.31 in 10.0 mi NW 12.7 mph - N/A   Scattered Clouds
5:55 PM 53.6 °F - 38.7 °F 57% 30.31 in 10.0 mi WNW 10.4 mph 17.3 mph N/A   Mostly Cloudy
6:15 PM 52.7 °F - 38.3 °F 58% 30.31 in 10.0 mi NW 6.9 mph - N/A   Mostly Cloudy
6:35 PM 51.6 °F - 38.3 °F 60% 30.31 in 10.0 mi NW 6.9 mph - N/A   Scattered Clouds
6:55 PM 49.6 °F - 38.5 °F 65% 30.31 in 10.0 mi NW 5.8 mph - N/A   Scattered Clouds
7:15 PM 48.0 °F - 39.4 °F 72% 30.32 in 10.0 mi NW 4.6 mph - N/A   Scattered Clouds
7:35 PM 46.8 °F - 39.7 °F 77% 30.32 in 10.0 mi Calm Calm - N/A   Scattered Clouds
8:15 PM 46.2 °F 45.0 °F 39.7 °F 78% 30.33 in 10.0 mi NNW 3.5 mph - N/A   Mostly Cloudy
8:35 PM 45.9 °F 43.6 °F 39.7 °F 79% 30.33 in 10.0 mi NNW 4.6 mph - N/A   Mostly Cloudy
8:55 PM 45.5 °F 44.2 °F 39.2 °F 79% 30.34 in 10.0 mi North 3.5 mph - N/A   Scattered Clouds
9:15 PM 45.5 °F 44.2 °F 38.8 °F 78% 30.34 in 10.0 mi North 3.5 mph - N/A   Scattered Clouds
9:35 PM 44.6 °F 42.2 °F 38.1 °F 78% 30.34 in 10.0 mi NNW 4.6 mph - N/A   Scattered Clouds
9:55 PM 43.9 °F 42.3 °F 37.8 °F 79% 30.35 in 10.0 mi NNW 3.5 mph - N/A   Clear
10:15 PM 43.3 °F 41.7 °F 37.8 °F 81% 30.35 in 10.0 mi North 3.5 mph - N/A   Scattered Clouds
10:35 PM 46.2 °F 42.2 °F 38.8 °F 75% 30.36 in 10.0 mi North 8.1 mph - N/A   Overcast
10:55 PM 46.0 °F 41.4 °F 36.7 °F 70% 30.37 in 10.0 mi North 9.2 mph - N/A   Overcast
11:15 PM 46.0 °F 41.9 °F 36.5 °F 69% 30.38 in 10.0 mi North 8.1 mph - N/A   Overcast
11:35 PM 46.0 °F 43.1 °F 36.5 °F 69% 30.38 in 10.0 mi NNE 5.8 mph - N/A   Overcast
11:55 PM 45.9 °F 41.2 °F 36.5 °F 70% 30.38 in 10.0 mi NNE 9.2 mph - N/A   Overcast